Погода в Креневе

Россия / Костромская область     58°33′16″N   41°20′58″E
темп.,
°C
ветер,
м/с
пор.,
м/с
влажн.,
%
обл.,
%
осадки,
мм/ч
давл.,
гПа
погр.,
м
15 мая, сб
сб1500:00+13юв3895100 0.3 1015190
03:00+13вюв249827 0.3 1014118
06:00+14в389432 0.1 1013267
09:00+17юв3589100 1.4 1012458
12:00+20ююв71178100 0.5 10121050
15:00+21юв4662100 0.6 1010680
18:00+16юв2488100 25.7 1009117
21:00+15ююв5129342 26.4 1008401
16 мая, вс
вс1600:00+14ю5139731 0.1 1009405
03:00+13ю4119720 0.1 1009332
06:00+14ю5119562 0.0 1009488
09:00+16ююз6108488 0.0 1010834
12:00+19ююз7106897 0.2 10111441
15:00+19юз6117133 1.6 10111254
18:00+18юз5107460 0.6 1011920
21:00+14ююз3109147 0.8 1012232
17 мая, пн
пн1700:00+12юз38966 0.0 1013180
03:00+11зюз34975 0.0 101588
06:00+13ююз239113 0.0 1016122
09:00+18ююз23747 0.0 1017577
12:00+21ююз2358100 0.0 10161211
15:00+23ю2353100 0.0 10161498
18:00+22ююв236553 0.0 1015331
21:00+17в227866 0.0 101523
18 мая, вт
вт1800:00+15вюв368679 0.1 101495
03:00+13вюв389292 0.1 1014148
06:00+15вюв388973 0.0 1013201
09:00+21юв586756 0.0 1012453
12:00+25юв69495 0.0 10121056
15:00+26юв610492 0.0 10101347
18:00+23юв612580 0.0 1010494
21:00+18юв413755 0.0 1010279
19 мая, ср
ср1900:00+16юв3108480 0.0 1010168
03:00+15юв3989100 0.0 1009162
06:00+16в368899 0.2 1008163
09:00+21юв4868100 0.2 1007464
12:00+24ююв565287 0.0 10061274
15:00+24ююв5955100 0.0 10051606
18:00+20ююз51075100 0.4 1003672
21:00+15юв6148474 2.4 1002601